Waarnemingen

Advertentie
Mijn weer
Cabo Busto, Spanje (8010): temperatuur & dauwpunt: 12.02.2019 19:00:00 - 18.02.2019 19:00:00 (CET)Cabo Busto, Spanje (8010): windsnelheid & windstoten: 12.02.2019 19:00:00 - 18.02.2019 19:00:00 (CET)Cabo Busto, Spanje (8010): windrichting: 12.02.2019 19:00:00 - 18.02.2019 19:00:00 (CET)Cabo Busto, Spanje (8010): luchtdruk: 12.02.2019 19:00:00 - 18.02.2019 19:00:00 (CET)Cabo Busto, Spanje (8010): zicht: 12.02.2019 19:00:00 - 18.02.2019 19:00:00 (CET)Cabo Busto, Spanje (8010): Zonneschijnduur: 12.02.2019 19:00:00 - 18.02.2019 19:00:00 (CET)Cabo Busto, Spanje (8010): neerslag: 12.02.2019 19:00:00 - 18.02.2019 19:00:00 (CET)
Datum & Tijd tt [°C] td [°C] ff [km/u] ff [kn] fx [km/u] fx [kn] dd ppp [hPa] vv [km] sd [min] rr [mm]
18.02.2019 19:00:00 8,3 6,2 14 7 22 12 ZZO 1020,7 20 0 -
18.02.2019 18:00:00 8,5 6,7 15 8 23 12 ZZO 1020,1 20 0 0,4
18.02.2019 17:00:00 8,7 6,7 9 5 21 12 Z 1020,4 18 0 1,2
18.02.2019 16:00:00 8,8 6,7 15 8 34 18 WZW 1020,1 3,7 0 0,8
18.02.2019 15:00:00 9,2 7,3 23 12 32 17 W 1019,9 4,5 0 1,0
18.02.2019 14:00:00 9,2 7,4 24 13 35 19 W 1019,7 4,8 0 1,6
18.02.2019 13:00:00 9,5 7,8 25 13 34 18 W 1019,6 6 0 -
18.02.2019 12:00:00 9,7 7,8 18 10 29 16 W 1019,3 7 0 1,0
18.02.2019 11:00:00 9,5 7,6 16 8 21 11 W 1019,2 5 0 1,6
18.02.2019 10:00:00 9,7 7,8 14 8 18 10 W 1018,9 4,4 0 0,6
18.02.2019 09:00:00 9,8 7,8 6 4 11 6 W 1018,4 3,3 0 0,0
18.02.2019 08:00:00 9,3 7,4 2 1 9 5 WZW 1017,9 6 0 0,0
18.02.2019 07:00:00 9,2 7,3 1 1 11 6 ZO 1017,8 11 0 -
18.02.2019 06:00:00 9,2 7,3 7 4 13 7 ZZO 1017,6 10 0 0,2
18.02.2019 05:00:00 9,6 7,7 5 3 13 7 WNW 1017,6 2,3 0 0,2
18.02.2019 04:00:00 9,6 7,7 6 3 15 8 WZW 1017,8 9 0 0,0
18.02.2019 03:00:00 9,4 7,7 5 3 26 14 ZW 1018,0 4,6 0 0,2
18.02.2019 02:00:00 9,5 8,0 18 10 27 15 W 1018,0 4,5 0 0,4
18.02.2019 01:00:00 10,0 8,3 18 10 32 17 WNW 1017,9 1,3 0 -
18.02.2019 00:00:00 10,8 8,9 23 12 32 18 NW 1017,9 4,1 0 0,6
17.02.2019 23:00:00 11,8 9,2 4 2 10 5 WNW 1018,1 7 0 0,0
17.02.2019 22:00:00 11,6 8,8 6 3 9 5 W 1018,1 4,5 0 0,0
17.02.2019 21:00:00 11,6 8,8 2 1 9 5 ZO 1018,0 15 0 0,0
17.02.2019 20:00:00 11,7 8,9 5 3 10 5 W 1018,1 12 0 0,0
17.02.2019 19:00:00 12,2 9,2 3 2 10 5 WNW 1017,7 3,9 0 -
17.02.2019 18:00:00 13,0 9,3 2 1 9 5 N 1017,3 7 7 0,0
17.02.2019 17:00:00 13,4 9,4 5 3 12 7 NO 1017,3 18 39 0,0
17.02.2019 16:00:00 13,6 9,4 6 3 23 13 NW 1017,4 13 36 0,0
17.02.2019 15:00:00 14,4 8,1 7 4 17 9 N 1017,5 10 54 0,0
17.02.2019 14:00:00 15,9 6,4 9 5 18 10 O 1017,7 20 60 0,0
17.02.2019 13:00:00 15,3 6,1 7 4 11 6 O 1018,3 20 19 -
17.02.2019 12:00:00 14,0 6,4 5 3 11 6 ONO 1018,5 19 0 0,0
17.02.2019 11:00:00 11,7 5,3 7 4 14 8 Z 1018,4 20 0 0,0
17.02.2019 10:00:00 11,7 3,9 9 5 22 12 ZZO 1018,3 20 17 0,0
17.02.2019 09:00:00 11,0 2,5 16 8 25 14 Z 1017,9 20 0 0,0
17.02.2019 08:00:00 10,8 2,7 6 3 27 14 ZZO 1017,5 20 0 0,0
17.02.2019 07:00:00 10,2 2,3 24 13 32 18 ZZO 1017,2 20 0 -
17.02.2019 06:00:00 9,7 2,1 17 9 32 18 ZZO 1017,5 20 0 0,0
17.02.2019 05:00:00 9,5 2,1 26 14 36 20 ZZO 1017,4 20 0 0,0
17.02.2019 04:00:00 8,5 2,5 18 10 23 13 ZZO 1018,0 20 0 0,0
17.02.2019 03:00:00 8,5 2,9 18 10 23 13 ZZO 1018,0 20 0 0,0
17.02.2019 02:00:00 9,0 3,2 18 10 23 12 ZZO 1018,3 20 0 0,0
17.02.2019 01:00:00 9,6 3,4 16 9 21 11 ZZO 1018,9 20 0 -
17.02.2019 00:00:00 14,3 2,3 11 6 21 12 WZW 1019,4 20 0 0,0
16.02.2019 23:00:00 13,8 3,0 19 10 32 17 WZW 1019,6 20 0 0,0
16.02.2019 22:00:00 12,3 8,8 27 14 - - W 1019,0 14 0 0,0
16.02.2019 21:00:00 - - - - - - - - - - -
16.02.2019 20:00:00 13,5 4,1 13 7 15 8 ZZO 1018,5 20 0 0,0
16.02.2019 19:00:00 15,3 5,5 6 4 8 5 ZZO 1018,0 20 50 -
16.02.2019 18:00:00 18,1 6,2 6 3 8 4 ZO 1018,1 20 60 0,0
16.02.2019 17:00:00 18,3 6,1 0 0 4 2 N 1018,6 20 60 0,0
16.02.2019 16:00:00 15,5 7,3 3 2 7 4 O 1019,2 19 60 0,0
16.02.2019 15:00:00 15,4 9,0 4 2 8 4 WNW 1019,9 7 60 0,0
16.02.2019 14:00:00 15,2 7,0 2 1 7 4 NNW 1021,0 4,8 60 0,0
16.02.2019 13:00:00 13,6 5,5 6 3 12 7 WZW 1021,9 17 60 -
16.02.2019 12:00:00 12,5 5,9 9 5 16 9 WZW 1022,2 12 60 0,0
16.02.2019 11:00:00 13,0 4,5 6 3 27 15 ZW 1022,5 12 60 0,0
16.02.2019 10:00:00 10,0 2,1 22 12 35 19 ZZO 1022,7 20 60 0,0
16.02.2019 09:00:00 7,6 1,7 20 11 26 14 ZZO 1023,1 20 4 0,0
16.02.2019 08:00:00 7,1 1,9 18 10 24 13 ZZO 1023,3 20 0 0,0
16.02.2019 07:00:00 6,8 1,9 15 8 18 10 ZZO 1023,9 20 0 -
16.02.2019 06:00:00 9,2 4,8 11 6 23 12 WZW 1023,9 20 0 0,0
16.02.2019 05:00:00 8,0 1,9 19 10 24 13 ZZO 1023,7 20 0 0,0
16.02.2019 04:00:00 8,0 1,9 21 11 28 15 ZZO 1024,5 20 0 0,0
16.02.2019 03:00:00 8,6 1,9 17 9 24 13 ZO 1025,3 20 0 0,0
16.02.2019 02:00:00 8,1 2,1 14 7 19 10 Z 1026,1 20 0 0,0
16.02.2019 01:00:00 8,8 2,3 10 6 16 9 Z 1026,4 20 0 -
16.02.2019 00:00:00 11,5 2,9 11 6 18 10 ZW 1026,3 20 0 0,0
15.02.2019 23:00:00 10,0 3,0 16 9 19 11 ZZO 1026,0 20 0 0,0
15.02.2019 22:00:00 13,0 2,3 10 5 16 9 OZO 1025,6 20 0 0,0
15.02.2019 21:00:00 14,1 1,3 11 6 18 10 OZO 1025,1 20 0 0,0
15.02.2019 20:00:00 14,2 0,4 13 7 16 9 O 1025,0 20 0 0,0
15.02.2019 19:00:00 13,8 1,5 12 6 14 8 OZO 1024,8 20 10 -
15.02.2019 18:00:00 15,8 1,1 6 3 8 4 NO 1024,6 20 39 0,0
15.02.2019 17:00:00 17,4 0,4 6 3 9 5 WZW 1024,6 20 60 0,0
15.02.2019 16:00:00 18,8 3,8 4 2 9 5 W 1024,5 20 60 0,0
15.02.2019 15:00:00 19,2 2,9 5 3 9 5 W 1024,8 20 60 0,0
15.02.2019 14:00:00 18,8 1,3 5 3 10 6 W 1024,8 20 60 0,0
15.02.2019 13:00:00 18,2 0,4 3 2 6 3 NNW 1025,0 20 60 -
15.02.2019 12:00:00 16,4 2,1 3 1 14 7 ZW 1025,2 20 60 0,0
15.02.2019 11:00:00 14,9 1,1 9 5 24 13 ZZW 1024,8 20 60 0,0
15.02.2019 10:00:00 11,4 1,3 21 12 36 19 ZZO 1024,2 20 60 0,0
15.02.2019 09:00:00 11,3 0,0 23 13 36 20 ZZO 1023,5 20 3 0,0
15.02.2019 08:00:00 10,4 0,6 24 13 33 18 ZZO 1023,2 20 0 0,0
15.02.2019 07:00:00 10,0 1,1 23 12 32 17 ZZO 1023,2 20 0 -
15.02.2019 06:00:00 9,9 1,5 23 12 29 16 ZZO 1022,8 20 0 0,0
15.02.2019 05:00:00 9,7 1,9 21 12 27 15 ZZO 1022,8 20 0 0,0
15.02.2019 04:00:00 10,4 2,1 15 8 27 15 Z 1023,0 20 0 0,0
15.02.2019 03:00:00 10,3 2,7 21 11 29 15 ZZO 1022,9 20 0 0,0
15.02.2019 02:00:00 10,2 3,2 19 10 23 13 ZZO 1023,2 20 0 0,0
15.02.2019 01:00:00 10,1 3,6 18 10 22 12 ZZO 1023,1 20 0 -
15.02.2019 00:00:00 10,9 5,8 8 5 14 7 ZZW 1023,3 20 0 0,0
14.02.2019 23:00:00 11,9 6,2 11 6 20 11 WZW 1022,9 20 0 0,0
14.02.2019 22:00:00 9,8 5,1 8 5 17 9 Z 1022,8 20 0 0,0
14.02.2019 21:00:00 11,8 8,5 16 9 24 13 O 1022,7 18 0 0,0
14.02.2019 20:00:00 12,1 8,8 10 6 16 9 O 1022,6 20 0 0,0
14.02.2019 19:00:00 12,2 9,0 9 5 14 8 O 1022,4 20 46 -
14.02.2019 18:00:00 13,2 9,4 8 5 12 7 O 1022,5 13 60 0,0
14.02.2019 17:00:00 13,9 8,8 6 3 11 6 O 1022,9 19 60 0,0
14.02.2019 16:00:00 13,7 8,4 9 5 13 7 O 1023,1 17 60 0,0
14.02.2019 15:00:00 14,0 8,4 5 3 12 7 ONO 1023,8 8 60 0,0
14.02.2019 14:00:00 13,6 6,8 5 3 8 4 ONO 1024,5 12 60 0,0
14.02.2019 13:00:00 14,2 7,7 3 2 9 5 WNW 1025,3 3,9 60 -
14.02.2019 12:00:00 13,5 6,5 6 3 10 5 W 1025,6 11 60 0,0
14.02.2019 11:00:00 12,3 3,0 10 5 23 12 ZZO 1025,8 20 60 0,0
14.02.2019 10:00:00 9,2 1,9 18 10 24 13 ZZO 1026,0 20 60 0,0
14.02.2019 09:00:00 7,1 1,7 17 9 23 12 ZO 1025,9 20 3 0,0
14.02.2019 08:00:00 6,9 2,1 18 10 23 13 ZZO 1025,9 20 0 0,0
14.02.2019 07:00:00 6,5 2,3 18 10 23 13 ZZO 1026,1 20 0 -
14.02.2019 06:00:00 6,7 2,7 16 8 23 12 ZZO 1026,2 20 0 0,0
14.02.2019 05:00:00 7,1 2,7 18 10 23 12 ZZO 1026,0 20 0 0,0
14.02.2019 04:00:00 7,1 2,5 16 9 22 12 ZZO 1026,4 20 0 0,0
14.02.2019 03:00:00 7,8 2,7 17 9 27 15 Z 1026,7 20 0 0,0
14.02.2019 02:00:00 8,4 2,9 22 12 29 16 ZZO 1026,9 20 0 0,0
14.02.2019 01:00:00 8,7 2,7 21 12 28 15 ZZO 1027,1 20 0 -
14.02.2019 00:00:00 9,0 3,0 23 13 29 16 ZZO 1027,5 20 0 0,0
13.02.2019 23:00:00 8,0 3,4 19 10 22 12 ZZO 1028,1 20 0 0,0
13.02.2019 22:00:00 9,0 3,6 16 9 21 11 ZO 1028,0 20 0 0,0
13.02.2019 21:00:00 9,0 3,9 13 7 15 8 ZZO 1028,1 20 0 0,0
13.02.2019 20:00:00 9,9 5,6 5 3 7 4 ZZW 1028,1 14 0 0,0
13.02.2019 19:00:00 11,9 6,8 2 1 15 8 NNO 1027,7 20 46 -
13.02.2019 18:00:00 12,7 6,1 11 6 17 9 OZO 1027,3 20 60 0,0
13.02.2019 17:00:00 13,5 6,5 10 5 16 9 O 1027,5 20 60 0,0
13.02.2019 16:00:00 13,7 6,8 9 5 14 8 O 1027,5 20 60 0,0
13.02.2019 15:00:00 13,7 7,7 7 4 11 6 O 1027,6 20 60 0,0
13.02.2019 14:00:00 13,0 7,0 3 2 13 7 ONO 1028,4 11 60 0,0
13.02.2019 13:00:00 - - - - - - - - - - -
13.02.2019 12:00:00 12,7 5,3 8 4 18 10 NO 1028,7 16 60 0,0
13.02.2019 11:00:00 11,1 3,6 14 7 19 10 ZZO 1028,5 20 60 0,0
13.02.2019 10:00:00 8,4 1,9 16 8 23 13 ZZO 1028,9 20 60 0,0
13.02.2019 09:00:00 5,6 0,9 18 10 23 12 ZZO 1028,9 20 3 0,0
13.02.2019 08:00:00 5,6 0,9 19 10 23 12 ZZO 1028,5 20 0 0,0
13.02.2019 07:00:00 5,2 0,9 16 9 23 12 ZZO 1028,4 20 0 -
13.02.2019 06:00:00 5,4 0,9 19 10 23 13 ZZO 1028,3 20 0 0,0
13.02.2019 05:00:00 5,0 0,9 17 9 22 12 ZZO 1028,5 20 0 0,0
13.02.2019 04:00:00 5,3 1,3 17 9 21 12 ZZO 1028,8 20 0 0,0
13.02.2019 03:00:00 5,0 1,3 16 9 21 11 ZZO 1029,1 20 0 0,0
13.02.2019 02:00:00 5,7 1,7 16 8 21 11 ZO 1029,4 20 0 0,0
13.02.2019 01:00:00 5,4 1,9 14 8 18 10 ZZO 1029,5 20 0 -
13.02.2019 00:00:00 5,8 2,5 14 8 19 10 ZZO 1029,7 20 0 0,0
12.02.2019 23:00:00 6,5 2,5 11 6 17 9 ZZO 1029,9 20 0 0,0
12.02.2019 22:00:00 8,5 4,6 10 5 18 10 OZO 1029,8 20 0 0,0
12.02.2019 21:00:00 7,6 3,8 9 5 15 8 Z 1029,8 20 0 0,0
12.02.2019 20:00:00 10,5 5,9 9 5 31 17 O 1029,9 20 0 0,0
12.02.2019 19:00:00 11,2 6,5 19 10 38 21 ONO 1029,2 20 42 -

tt = temperatuur
td = dauwpunt
ff = windsnelheid
fx = windstoten
dd = windrichting
ppp = luchtdruk
vv = zicht
sd = Zonneschijnduur
rr = neerslag

Weerstations in de omgeving